Flag for Australia Weather past 2 weeks in Canberra, Australian Capital Territory, Australia

Now
34 °F

Clear.


Feels Like: 31 °F
Forecast: 29 / 55 °F
Wind: 3 mph from North

Location: Canberra Airport

Current Time: May 26, 2015 at 12:06:53 AM

Latest Report: May 26, 2015 at 12:00 AM


Visibility: N/A

Pressure: 30.42 "Hg

Humidity: 87%

Dew point: 30 °F

Location of CanberraLocation

Historic Weather in Canberra — Graph

°F

Canberra temperature yesterday

Maximum temperature yesterday: 57 °F (at 3:00 PM)
Minimum temperature yesterday: 28 °F (at 2:30 AM)
Average temperature yesterday: 40 °F

Past Weeks' High & Low Weather Summary

 TemperatureHumidityPressure
High64 °F (May 17, 3:00 PM)100% (May 14, 5:30 AM)30.63 "Hg (May 14, 5:30 AM)
Low21 °F (May 24, 6:30 AM)28% (May 17, 4:00 PM)29.74 "Hg (May 10, 11:30 PM)
Average46 °F75%30.24 "Hg
* Reported May 10 10:00 PM — May 25 10:30 PM, Canberra, Weather by CustomWeather, © 2015

Note: Actual official high and low records may vary slightly from our data, if they occured in-between our weather recording intervals... More about our weather records

Advertising

Canberra weather history for previous 24 hours

 ConditionsComfort  
Time TempWeatherWind HumidityBarometerVisibility
10:30 PM
Mon, May 25
36 °FClear.1 mph93%30.42 "HgN/A
10:00 PM36 °FClear.3 mph93%30.42 "HgN/A
9:30 PM36 °FClear.2 mph93%30.42 "HgN/A
9:00 PM36 °FClear.No wind93%30.42 "HgN/A
8:30 PM36 °FClear.5 mph87%30.42 "Hg10 mi
8:00 PM37 °FClear.6 mph87%30.42 "Hg10 mi
7:30 PM36 °FClear.5 mph93%30.42 "Hg10 mi
7:00 PM37 °FClear.No wind81%30.39 "Hg10 mi
6:30 PM41 °FClear.5 mph76%30.39 "Hg10 mi
6:00 PM43 °FClear.5 mph76%30.39 "Hg10 mi
5:30 PM43 °FClear.5 mph71%30.39 "Hg10 mi
5:00 PM52 °FClear.3 mph58%30.36 "Hg10 mi
4:30 PM55 °FClear.3 mph55%30.39 "Hg10 mi
4:00 PM57 °FSunny.1 mph51%30.39 "Hg10 mi
3:30 PM57 °FSunny.5 mph51%30.39 "Hg10 mi
3:00 PM57 °FSunny.1 mph51%30.39 "Hg10 mi
2:30 PM55 °FSunny.3 mph51%30.39 "Hg10 mi
1:30 PM54 °FSunny.5 mph54%30.39 "Hg10 mi
1:00 PM54 °FSunny.3 mph54%30.39 "Hg10 mi
12:30 PM50 °FSunny.3 mph58%30.42 "Hg10 mi
12:00 PM50 °FSunny.2 mph62%30.45 "Hg10 mi
11:30 AM48 °FSunny.2 mph62%30.45 "Hg10 mi
11:00 AM46 °FScattered clouds.2 mph66%30.45 "HgN/A
10:30 AM43 °FSunny.5 mph76%30.48 "Hg10 mi
10:00 AM41 °FSunny.1 mph76%30.48 "Hg10 mi
9:30 AM39 °FSunny.No wind81%30.48 "Hg10 mi
9:00 AM37 °FSunny.No wind87%30.48 "Hg10 mi
8:30 AM36 °FSunny.No wind93%30.48 "Hg10 mi
8:00 AM34 °FSunny.2 mph93%30.48 "Hg10 mi
7:30 AM32 °FSunny.3 mph93%30.45 "Hg10 mi
7:00 AM32 °FSunny.2 mph93%30.48 "Hg10 mi
6:30 AM32 °FPartly sunny.No wind87%30.48 "HgN/A
6:00 AM32 °FSunny.No wind93%30.45 "Hg10 mi
5:30 AM32 °FClear.No wind93%30.45 "Hg10 mi
5:00 AM32 °FClear.No wind93%30.45 "Hg10 mi
4:30 AM32 °FClear.5 mph93%30.45 "Hg10 mi
4:00 AM30 °FClear.1 mph86%30.45 "HgN/A
3:30 AM32 °FClear.No wind93%30.45 "HgN/A
3:00 AM32 °FClear.1 mph93%30.45 "HgN/A
2:30 AM28 °FClear.No wind93%30.45 "HgN/A
2:00 AM32 °FClear.1 mph93%30.48 "HgN/A
1:30 AM30 °FClear.5 mph93%30.48 "HgN/A
1:00 AM30 °FClear.No wind93%30.48 "HgN/A
12:30 AM32 °FClear.No wind87%30.48 "HgN/A
12:00 AM34 °FClear.2 mph81%30.48 "HgN/A
Weather by CustomWeather, © 2015

See weather overviewHow to use our weather pages